Roseburg, OR

10:18 PM PDT on September 18, 2019 (GMT -0700)
Roseburg Regional

Weather History for KRBG - July, 2019

Change the Weather History Date:

Tuesday, July 16, 2019

  Actual Average Record
Temperature  
Mean Temperature 74 °F 71 °F  
Max Temperature 84 °F 85 °F 103 °F (1979)
Min Temperature 64 °F 57 °F 46 °F (1964)
Degree Days  
Heating Degree Days 0 0  
Month to date heating degree days 2 8  
Since 1 June heating degree days 37 91  
Since 1 July heating degree days 2 8  
Cooling Degree Days 9 6  
Month to date cooling degree days 88 77  
Year to date cooling degree days 239 147  
Since 1 June cooling degree days 210 127  
Growing Degree Days 22 (Base 50)    
Moisture  
Dew Point 56 °F    
Average Humidity 59    
Maximum Humidity 78    
Minimum Humidity 39    
Precipitation  
Precipitation T in 0.01 in 0.31 in (1991)
Month to date precipitation T 0.25  
Year to date precipitation 21.67 19.01  
Sea Level Pressure  
Sea Level Pressure 30.01 in    
Wind  
Wind Speed 8 mph (North)    
Max Wind Speed 15 mph    
Max Gust Speed 20 mph    
Visibility 10 miles    
Events Rain    
T = Trace of Precipitation, MM = Missing Value Source: NWS Daily Summary

Daily Weather History Graph

Daily Weather History Graph

Search for Another Location

Airport or City:

Astronomy

Jul. 16, 2019 Rise Set
Actual Time 5:47 AM PDT 8:50 PM PDT
Civil Twilight 5:13 AM PDT 9:24 PM PDT
Nautical Twilight 4:29 AM PDT 10:08 PM PDT
Astronomical Twilight 3:37 AM PDT 11:00 PM PDT
Moon 9:01 PM PDT (7/16) 5:30 AM PDT (7/16)
Length of Visible Light 16h 11m
Length of Day
15h 02m
Full, 100% of the Moon is Illuminated
Jul 16
Full
Jul 16
Full
Jul 24
Last Quarter
Jul 31
New
Aug 7
First Quarter

Hourly Weather History & Observations

Time (PDT) Temp. Heat Index Dew Point Humidity Pressure Visibility Wind Dir Wind Speed Gust Speed Precip Events Conditions
12:53 AM 69.1 °F - 57.9 °F 68% 30.04 in 10.0 mi North 4.6 mph - N/A   Overcast
1:53 AM 69.1 °F - 57.9 °F 68% 30.03 in 10.0 mi NNE 5.8 mph - N/A   Overcast
2:53 AM 68.0 °F - 57.9 °F 70% 30.02 in 10.0 mi North 6.9 mph - N/A   Overcast
3:02 AM 68.0 °F - 57.9 °F 70% 30.03 in 10.0 mi North 5.8 mph - N/A   Overcast
3:53 AM 68.0 °F - 57.9 °F 70% 30.01 in 10.0 mi North 6.9 mph - N/A   Overcast
4:53 AM 66.9 °F - 57.9 °F 73% 30.02 in 10.0 mi North 6.9 mph - N/A   Overcast
5:53 AM 64.9 °F - 59.0 °F 81% 30.02 in 8.0 mi NNE 5.8 mph - 0.00 in Rain Light Rain
6:53 AM 66.0 °F - 59.0 °F 78% 30.04 in 10.0 mi North 10.4 mph - 0.00 in   Overcast
7:53 AM 64.9 °F - 57.9 °F 78% 30.04 in 10.0 mi North 8.1 mph - N/A   Overcast
8:53 AM 66.0 °F - 57.9 °F 75% 30.05 in 10.0 mi NNE 5.8 mph - N/A   Overcast
9:32 AM 66.9 °F - 57.9 °F 73% 30.05 in 10.0 mi North 8.1 mph - N/A   Overcast
9:53 AM 69.1 °F - 57.9 °F 68% 30.04 in 10.0 mi NNW 5.8 mph - N/A   Overcast
10:53 AM 72.0 °F - 57.0 °F 59% 30.03 in 10.0 mi North 5.8 mph - N/A   Overcast
11:53 AM 75.0 °F - 55.9 °F 51% 30.02 in 10.0 mi North 9.2 mph - N/A   Mostly Cloudy
12:53 PM 77.0 °F - 55.9 °F 48% 30.01 in 10.0 mi North 10.4 mph - N/A   Overcast
1:53 PM 78.1 °F - 54.0 °F 43% 30.00 in 10.0 mi NNE 5.8 mph - N/A   Overcast
2:53 PM 80.1 °F 79.9 °F 53.1 °F 39% 29.98 in 10.0 mi NNW 8.1 mph - N/A   Scattered Clouds
3:53 PM 81.0 °F 80.4 °F 53.1 °F 38% 29.97 in 10.0 mi Variable 4.6 mph - N/A   Clear
4:53 PM 81.0 °F 80.4 °F 53.1 °F 38% 29.96 in 10.0 mi NW 10.4 mph - N/A   Scattered Clouds
5:53 PM 81.0 °F 80.4 °F 53.1 °F 38% 29.96 in 10.0 mi NW 6.9 mph - N/A   Partly Cloudy
6:53 PM 78.1 °F - 55.9 °F 46% 29.97 in 10.0 mi NNW 9.2 mph - N/A   Clear
7:53 PM 73.9 °F - 55.9 °F 53% 29.97 in 10.0 mi NNW 10.4 mph - N/A   Clear
8:53 PM 70.0 °F - 55.9 °F 61% 30.00 in 10.0 mi North 10.4 mph - N/A   Clear
9:53 PM 68.0 °F - 55.0 °F 63% 30.01 in 10.0 mi North 9.2 mph - N/A   Clear
10:53 PM 66.0 °F - 55.0 °F 68% 30.02 in 10.0 mi North 8.1 mph - N/A   Clear
11:53 PM 64.9 °F - 54.0 °F 68% 30.02 in 10.0 mi NNE 5.8 mph - N/A   Overcast